Burlington, WA
on Sunday, November 18, 2012

Sunday
Previous Day Next Day
Daily Summary
 ActualAverage (KBLI)Record (KBLI)
Temperature
Mean Temperature °F 43°F  
Max Temperature 51°F 49°F 56°F (1954)
Min Temperature 46°F 36°F 23°F (1994)
Degree Days
Heating Degree Days 16 22  
Month to date heating degree days 367  
Cooling Degree Days 0 0  
Month to date cooling degree days 0  
Year to date cooling degree days 42  
Moisture
Dew Point 43°F   
Average Humidity 84    
Maximum Humidity 100    
Minimum Humidity 76    
Precipitation
Precipitation 0.05 in 0.20 in 1.85 in (2003)
Month to date precipitation 3.55  
Year to date precipitation 29.36  
Wind
Wind Speed 14 mph   
Max Wind Speed 23 mph   
Max Gust Speed 36 mph   
Visibility 10 miles   
Events     

Key: T is trace of precipitation, MM is missing value
Source: NWS Daily Summary
Time(PST)TemperatureDew PointHumidity Pressure Visibility Wind DirectionWind SpeedGust SpeedPrecipitationEvents Conditions
12:15 AM 46.4°F 42.8°F 87% 29.67 in 10.0 miles SSE 12.7 mph 19.6 mph 0.00 in   Overcast
12:35 AM 46.4°F 42.8°F 87% 29.68 in 10.0 miles SSE 12.7 mph 18.4 mph 0.00 in   Overcast
12:55 AM 46.4°F 42.8°F 87% 29.68 in 10.0 miles SSE 13.8 mph 21.9 mph 0.00 in   Overcast
1:15 AM 46.4°F 42.8°F 87% 29.69 in 10.0 miles SSE 10.4 mph 24.2 mph 0.00 in   Overcast
1:35 AM 46.4°F 42.8°F 87% 29.69 in 10.0 miles SSE 15.0 mph 24.2 mph 0.00 in   Overcast
1:55 AM 46.4°F 42.8°F 87% 29.69 in 10.0 miles SE 16.1 mph 21.9 mph 0.00 in   Overcast
2:15 AM 46.4°F 42.8°F 87% 29.69 in 10.0 miles SSE 12.7 mph 21.9 mph 0.00 in   Overcast
2:35 AM 46.4°F 42.8°F 87% 29.70 in 10.0 miles South 15.0 mph 21.9 mph 0.00 in   Overcast
2:55 AM 46.4°F 41.0°F 81% 29.70 in 10.0 miles SSE 15.0 mph 23.0 mph 0.00 in   Overcast
3:15 AM 46.4°F 41.0°F 81% 29.70 in 10.0 miles SSE 15.0 mph 20.7 mph 0.00 in   Overcast
3:35 AM 46.4°F 41.0°F 81% 29.70 in 10.0 miles SE 15.0 mph 24.2 mph 0.00 in   Mostly Cloudy
3:55 AM 46.4°F 42.8°F 87% 29.70 in 10.0 miles SSE 16.1 mph 25.3 mph 0.00 in   Mostly Cloudy
4:15 AM 46.4°F 42.8°F 87% 29.71 in 10.0 miles SSE 10.4 mph 27.6 mph 0.00 in   Overcast
4:35 AM 46.4°F 42.8°F 87% 29.72 in 10.0 miles South 11.5 mph 20.7 mph 0.00 in   Overcast
4:55 AM 46.4°F 42.8°F 87% 29.72 in 10.0 miles South 13.8 mph 18.4 mph 0.00 in   Overcast
5:15 AM 46.4°F 42.8°F 87% 29.73 in 10.0 miles South 12.7 mph 18.4 mph 0.00 in   Overcast
5:35 AM 46.4°F 42.8°F 87% 29.73 in 10.0 miles South 9.2 mph 18.4 mph 0.00 in   Overcast
5:55 AM 46.4°F 42.8°F 87% 29.72 in 10.0 miles SSE 12.7 mph 23.0 mph 0.00 in   Overcast
6:15 AM 46.4°F 42.8°F 87% 29.72 in 10.0 miles SE 12.7 mph 21.9 mph 0.00 in   Overcast
6:35 AM 46.4°F 42.8°F 87% 29.72 in 10.0 miles SE 11.5 mph 19.6 mph 0.00 in   Overcast
7:15 AM 46.4°F 42.8°F 87% 29.72 in 10.0 miles South 11.5 mph - 0.00 in   Overcast
7:35 AM 46.4°F 42.8°F 87% 29.72 in 10.0 miles SSE 12.7 mph 23.0 mph 0.00 in   Overcast
7:55 AM 46.4°F 41.0°F 81% 29.72 in 10.0 miles SE 13.8 mph 21.9 mph 0.00 in   Overcast
8:15 AM 46.4°F 41.0°F 81% 29.72 in 10.0 miles SSE 12.7 mph 24.2 mph 0.00 in   Overcast
8:35 AM 46.4°F 42.8°F 87% 29.71 in 10.0 miles SE 15.0 mph 24.2 mph 0.00 in   Mostly Cloudy
8:55 AM 48.2°F 42.8°F 82% 29.72 in 10.0 miles SSE 15.0 mph 25.3 mph 0.00 in   Scattered Clouds
9:15 AM 46.4°F 42.8°F 87% 29.72 in 10.0 miles SSE 15.0 mph 25.3 mph 0.00 in   Mostly Cloudy
9:35 AM 46.4°F 42.8°F 87% 29.72 in 10.0 miles SSE 15.0 mph 24.2 mph 0.00 in   Mostly Cloudy
10:15 AM 48.2°F 42.8°F 82% 29.73 in 10.0 miles SE 12.7 mph 21.9 mph 0.00 in   Overcast
10:35 AM 46.4°F 42.8°F 87% 29.73 in 10.0 miles SE 16.1 mph 23.0 mph 0.00 in   Mostly Cloudy
11:15 AM 48.2°F 42.8°F 82% 29.72 in 10.0 miles SE 16.1 mph 25.3 mph 0.00 in   Overcast
11:35 AM 48.2°F 42.8°F 82% 29.71 in 10.0 miles SE 13.8 mph 33.4 mph 0.00 in   Mostly Cloudy
11:55 AM 48.2°F 42.8°F 82% 29.71 in 10.0 miles SE 18.4 mph 25.3 mph 0.00 in   Mostly Cloudy
12:15 PM 48.2°F 42.8°F 82% 29.70 in 10.0 miles SE 18.4 mph 25.3 mph 0.00 in   Mostly Cloudy
12:35 PM 50.0°F 42.8°F 76% 29.70 in 10.0 miles SE 16.1 mph 32.2 mph 0.00 in   Mostly Cloudy
12:55 PM 50.0°F 42.8°F 76% 29.70 in 10.0 miles SE 12.7 mph 27.6 mph 0.00 in   Mostly Cloudy
1:15 PM 50.0°F 42.8°F 76% 29.69 in 10.0 miles SE 12.7 mph 29.9 mph 0.00 in   Mostly Cloudy
1:35 PM 50.0°F 42.8°F 76% 29.68 in 10.0 miles SE 13.8 mph 23.0 mph 0.00 in   Mostly Cloudy
1:55 PM 50.0°F 42.8°F 76% 29.68 in 10.0 miles SE 11.5 mph 24.2 mph 0.00 in   Mostly Cloudy
2:15 PM 50.0°F 42.8°F 76% 29.66 in 10.0 miles ESE 16.1 mph 23.0 mph 0.00 in   Mostly Cloudy
2:35 PM 48.2°F 42.8°F 82% 29.65 in 10.0 miles ESE 13.8 mph 24.2 mph 0.00 in   Overcast
2:55 PM 48.2°F 42.8°F 82% 29.64 in 10.0 miles ESE 19.6 mph 23.0 mph 0.00 in   Overcast
3:15 PM 48.2°F 42.8°F 82% 29.63 in 10.0 miles ESE 15.0 mph 21.9 mph 0.00 in   Overcast
3:35 PM 48.2°F 42.8°F 82% 29.62 in 10.0 miles ESE 15.0 mph 19.6 mph 0.00 in   Overcast
3:55 PM 50.0°F 42.8°F 76% 29.62 in 10.0 miles ESE 15.0 mph 24.2 mph 0.00 in   Overcast
4:15 PM 50.0°F 42.8°F 76% 29.60 in 10.0 miles ESE 19.6 mph 31.1 mph 0.00 in   Overcast
4:35 PM 48.2°F 42.8°F 82% 29.59 in 10.0 miles ESE 17.3 mph 24.2 mph 0.00 in   Overcast
4:55 PM 48.2°F 44.6°F 87% 29.58 in 10.0 miles ESE 23.0 mph 28.8 mph 0.00 in   Overcast
5:15 PM 48.2°F 44.6°F 87% 29.57 in 10.0 miles ESE 15.0 mph 23.0 mph 0.00 in   Overcast
5:35 PM 48.2°F 44.6°F 87% 29.55 in 10.0 miles ESE 17.3 mph 21.9 mph 0.00 in   Overcast
6:15 PM 48.2°F 44.6°F 87% 29.53 in 10.0 miles ESE 18.4 mph 26.5 mph 0.00 in   Overcast
6:35 PM 48.2°F 44.6°F 87% 29.51 in 10.0 miles ESE 17.3 mph 23.0 mph 0.00 in   Overcast
6:55 PM 46.4°F 46.4°F 100% 29.49 in 5.0 miles ESE 18.4 mph 27.6 mph 0.03 in   Overcast
7:15 PM 48.2°F 44.6°F 87% 29.51 in 10.0 miles SSE 15.0 mph 26.5 mph 0.00 in   Overcast
7:35 PM 48.2°F 46.4°F 93% 29.53 in 9.0 miles SSE 12.7 mph 21.9 mph 0.01 in   Overcast
7:55 PM 48.2°F 46.4°F 93% 29.53 in 10.0 miles SE 18.4 mph 26.5 mph 0.01 in   Overcast
8:15 PM 48.2°F 46.4°F 93% 29.54 in 10.0 miles SE 12.7 mph 21.9 mph 0.01 in   Overcast
8:35 PM 48.2°F 46.4°F 93% 29.54 in 10.0 miles SE 16.1 mph 21.9 mph 0.01 in   Overcast
8:55 PM 48.2°F 44.6°F 87% 29.55 in 10.0 miles SE 17.3 mph 23.0 mph 0.01 in   Overcast
9:15 PM 50.0°F 44.6°F 82% 29.55 in 10.0 miles SSE 17.3 mph 24.2 mph 0.00 in   Overcast
9:35 PM 51.8°F 44.6°F 76% 29.54 in 10.0 miles SSE 18.4 mph 27.6 mph 0.00 in   Overcast
9:55 PM 51.8°F 44.6°F 76% 29.55 in 10.0 miles SSE 10.4 mph 21.9 mph 0.00 in   Overcast
10:15 PM 51.8°F 44.6°F 76% 29.53 in 10.0 miles SE 15.0 mph 28.8 mph 0.00 in   Overcast
10:35 PM 51.8°F 44.6°F 76% 29.53 in 10.0 miles SE 19.6 mph 26.5 mph 0.00 in   Overcast
11:15 PM 51.8°F 44.6°F 76% 29.54 in 10.0 miles SSE 21.9 mph 35.7 mph 0.00 in   Overcast
11:35 PM 51.8°F 46.4°F 82% 29.55 in 10.0 miles SSE 19.6 mph 28.8 mph 0.00 in   Overcast
11:55 PM 51.8°F 46.4°F 82% 29.54 in 10.0 miles SE 16.1 mph 25.3 mph 0.00 in   Overcast
Moon Phase
Nov. 18 Nov. 20 Nov. 28 Dec. 06 Dec. 13
Sunrise:07:22 AM (PST) Moon Rise:11:47 AM (PST)11/18
Sunset:04:26 PM (PST) Moon Set:10:00 PM (PST)11/18

Copyright © 2014 The Weather Underground, Inc.